Regional Weather Roundup
Issued by NWS

Home | Current Version | Previous Version | Text Only | Print | Product List | Glossary Off
Versions: 1 2 3 4 5 6 7 8 9 10 11 12 13 14 15 16 17 18 19 20 21 22 23 24 25 26 27 28 29 30 31 32 33 34 35 36 37 38 39 40 41 42 43 44 45 46 47 48 49 50

424
ASUS45 KBOU 271507
RWRCO

WEATHER ROUNDUP FOR COLORADO
NATIONAL WEATHER SERVICE DENVER/BOULDER CO
900 AM MDT THU JUL 27 2017

NOTE: "FAIR" INDICATES FEW OR NO CLOUDS BELOW 12000 FEET WITH NO
SIGNIFICANT WEATHER AND/OR OBSTRUCTIONS TO VISIBILITY.

COZ001>005-013-030-031-271600-
...NORTHWEST COLORADO...

CITY           SKY/WX    TMP DP  RH WIND       PRES   REMARKS
CRAIG          FAIR      65  57  75 CALM      30.33S
HAYDEN         FAIR      64  52  63 E3        30.35R
MEEKER         FAIR      66  55  67 CALM      30.33S
RABBIT EARS PA FAIR      54  50  87 W7        30.62R
STEAMBOAT SPGS FAIR      62  56  81 CALM      30.36S
WALDEN         FAIR      54  54 100 CALM      30.46S
$$

COZ006>008-011-271600-
...WEST CENTRAL VALLEYS...

CITY           SKY/WX    TMP DP  RH WIND       PRES   REMARKS
GRAND JUNCTION FAIR      75  59  57 S5        30.20S
MONTROSE       FAIR      72  56  57 CALM      30.28F
EAGLE          NOT AVBL
RIFLE          FAIR      70  59  68 N3        30.27S
DELTA          FAIR      74  56  53 E3        30.25S HAZE
NUCLA          NOT AVBL
$$

COZ017>023-064>068-271600-
...SOUTHWEST COLORADO...

CITY           SKY/WX    TMP DP  RH WIND       PRES   REMARKS
DURANGO        FAIR      69  53  56 CALM      30.32S
CORTEZ         FAIR      73  56  54 MISG      30.27R
PAGOSA SPRINGS FAIR      67  50  55 CALM      30.41R
TELLURIDE      FAIR      61  50  67 CALM      30.53R
WOLF CREEK PAS NOT AVBL
$$

COZ009-010-012-014-032>034-037-058>063-271600-
...CENTRAL COLORADO...

CITY           SKY/WX    TMP DP  RH WIND       PRES   REMARKS
ASPEN          FAIR      67  53  61 VRB3      30.41R
BUENA VISTA    FAIR      62  53  71 CALM      30.45F
COPPER MTN     FAIR      57  45  62 W3        30.73R
BERTHOUD PASS  FAIR      46  36  66 NW13      30.74S
COTTONWOOD PAS CLOUDY    55  52  88 E6        30.57F
GUNNISON       FAIR      61  51  70 CALM      30.44S
KREMMLING      CLOUDY    61  55  82 CALM      30.44S
LEADVILLE      CLOUDY    54  48  80 W3        30.54F
MONARCH PASS     N/A     52  46  82 SW7       30.82S
SALIDA         FAIR      66  55  69 N3        30.49S
SUNLIGHT       FAIR      52  45  76 CALM      30.66S
WILKERSON PASS FAIR      52  45  76 W3        30.69S
$$

COZ069>075-271600-
...SAN LUIS VALLEY/SANGRE DE CRISTO MOUNTAINS...

CITY           SKY/WX    TMP DP  RH WIND       PRES   REMARKS
ALAMOSA        FAIR      64  57  78 SW3       30.41R
DEL NORTE      FAIR      65  50  58 SW5       30.44F
LA VETA PASS   NOT AVBL
SAGUACHE         N/A    N/A N/A N/A MISG        N/A
$$

COZ035-036-038>040-271600-
...NORTHERN COLORADO FRONT RANGE...

CITY           SKY/WX    TMP DP  RH WIND       PRES   REMARKS
DENVER INTL AP FAIR      70  60  70 SE15      30.25S
DMNS CITY PARK   N/A     72  58  62 SW6       30.26S
AURORA         MOSUNNY   70  61  72 SE12      30.28R
FRONT RANGE AP FAIR      72  63  73 SE13      30.28S
ERIE MUNI ARPT CLOUDY    65  63  93 N5        30.26S FOG
BOULDER MUN AP FAIR      68  63  83 NE6       30.27S
CENTENNIAL     FAIR      69  59  70 VRB7      30.28S
BROOMFIELD     FAIR      64  61  88 N9        30.29R
FORT COLLINS   CLOUDY    68  63  84 VRB3      30.28R
LONGMONT       FAIR      71  64  80 N6        30.28R HAZE
$$

COZ041-046-047-076>085-087-088-271600-
...PIKES PEAK/PALMER DIVIDE AND SOUTHERN FOOTHILLS...

CITY           SKY/WX    TMP DP  RH WIND       PRES   REMARKS
COLO. SPRINGS  PTSUNNY   67  59  75 SE7       30.33S
A. F. ACADEMY  PTSUNNY   64  59  83 S3        30.34S
SCHRIEVER AFB  FAIR      64  59  84 SE10      30.33F
CHEYENNE MTN   PTSUNNY   62  57  84 NE3       30.32R
ELLICOTT       FAIR     N/A N/A N/A S8        30.32R
FALCON           N/A     64  59  85 S9        30.38S
FORT CARSON    FAIR      64  59  82 CALM      30.30S
LIMON          FAIR      68  64  87 SE12      30.28S
MONUMENT HILL  FAIR      64  54  68 S12       30.38R
CANON CITY     SUNNY     73  61  64 MISG      30.27R
WALSENBURG     FAIR      73  61  64 E5        30.31S
TRINIDAD       FAIR      67  58  72 CALM      30.31S
$$

COZ042>045-048>051-090-091-271600-
...NORTHEAST COLORADO...

CITY           SKY/WX    TMP DP  RH WIND       PRES   REMARKS
GREELEY ARPT   FAIR      67  64  90 CALM      30.26R FOG
AKRON          CLOUDY    70  61  73 SE15      30.25R
BURLINGTON     CLOUDY    70  66  87 E10       30.23F
WRAY           NOT AVBL
YUMA           NOT AVBL
STERLING       CLOUDY    72  64  78 SE6       30.21S
HOLYOKE        CLOUDY    72  68  88 SE7       30.23R
FORT MORGAN    CLOUDY    72  61  69 SE13      30.25R
$$

COZ086-089-092>099-271600-
...SOUTHEAST COLORADO...

CITY           SKY/WX    TMP DP  RH WIND       PRES   REMARKS
PUEBLO         FAIR      70  62  76 S3        30.24F
LA JUNTA       PTSUNNY   72  64  76 W5        30.22S
LAMAR          CLOUDY    72  68  87 NE8       30.18S
SPRINGFIELD      N/A     68  65  90 N8        30.21S
$$




USA.gov is the U.S. government's official web portal to all federal, state and local government web resources and services.